Time,TemperatureF,DewpointF,PressureIn,WindDirection,WindDirectionDegrees,WindSpeedMPH,WindSpeedGustMPH,Humidity,HourlyPrecipIn,Conditions,Clouds,dailyrainin,SoftwareType,DateUTC
2013-02-04 00:01:00,42.0,35.0,30.06,South,169,0.0,0.0,76,0.00,,,0.00,,2013-02-04 08:01:00,
2013-02-04 00:11:00,42.0,35.0,30.06,South,169,0.0,0.0,76,0.00,,,0.00,,2013-02-04 08:11:00,
2013-02-04 00:21:00,41.0,35.0,30.06,South,169,0.0,0.0,80,0.00,,,0.01,,2013-02-04 08:21:00,
2013-02-04 00:31:00,41.0,35.0,30.06,South,169,0.0,0.0,80,0.00,,,0.01,,2013-02-04 08:31:00,
2013-02-04 00:41:00,41.0,35.0,30.06,South,169,0.0,0.0,80,0.00,,,0.01,,2013-02-04 08:41:00,
2013-02-04 00:52:00,41.0,35.0,30.06,South,169,0.0,0.0,80,0.00,,,0.01,,2013-02-04 08:52:00,
2013-02-04 01:01:00,41.0,35.0,30.05,ENE,70,0.0,0.0,78,0.00,,,0.01,,2013-02-04 09:01:00,
2013-02-04 01:11:00,40.0,35.0,30.05,ENE,70,0.0,0.0,81,0.00,,,0.01,,2013-02-04 09:11:00,
2013-02-04 01:21:00,40.0,35.0,30.05,ENE,70,0.0,0.0,81,0.00,,,0.01,,2013-02-04 09:21:00,
2013-02-04 01:31:00,41.0,35.0,30.05,ENE,70,0.0,0.0,80,0.00,,,0.01,,2013-02-04 09:31:00,
2013-02-04 01:41:00,41.0,35.0,30.05,ENE,70,0.0,0.0,80,0.00,,,0.01,,2013-02-04 09:41:00,
2013-02-04 01:52:00,41.0,35.0,30.04,ENE,70,0.0,0.0,80,0.00,,,0.01,,2013-02-04 09:52:00,
2013-02-04 02:01:00,41.0,35.0,30.04,ENE,70,0.0,0.0,79,0.00,,,0.01,,2013-02-04 10:01:00,
2013-02-04 02:11:00,41.0,35.0,30.04,ENE,70,0.0,0.0,79,0.00,,,0.01,,2013-02-04 10:11:00,
2013-02-04 02:21:00,41.0,35.0,30.04,ENE,70,0.0,0.0,80,0.00,,,0.01,,2013-02-04 10:21:00,
2013-02-04 02:32:00,40.0,35.0,30.04,ENE,70,0.0,0.0,81,0.00,,,0.01,,2013-02-04 10:32:00,
2013-02-04 02:41:00,40.0,35.0,30.04,ENE,70,0.0,0.0,81,0.00,,,0.01,,2013-02-04 10:41:00,
2013-02-04 02:51:00,40.0,34.0,30.04,ENE,70,0.0,0.0,80,0.00,,,0.01,,2013-02-04 10:51:00,
2013-02-04 03:01:00,40.0,35.0,30.04,ENE,70,0.0,0.0,81,0.00,,,0.01,,2013-02-04 11:01:00,
2013-02-04 03:11:00,40.0,35.0,30.04,ENE,70,0.0,0.0,81,0.00,,,0.01,,2013-02-04 11:11:00,
2013-02-04 03:22:00,40.0,34.0,30.04,ENE,70,0.0,0.0,80,0.00,,,0.01,,2013-02-04 11:22:00,
2013-02-04 03:32:00,40.0,33.0,30.04,ENE,70,0.0,0.0,76,0.00,,,0.01,,2013-02-04 11:32:00,
2013-02-04 03:41:00,40.0,33.0,30.04,ENE,70,0.0,0.0,76,0.00,,,0.01,,2013-02-04 11:41:00,
2013-02-04 03:52:00,40.0,33.0,30.04,ENE,70,0.0,0.0,75,0.00,,,0.01,,2013-02-04 11:52:00,
2013-02-04 04:02:00,40.0,33.0,30.04,ENE,70,0.0,0.0,75,0.00,,,0.01,,2013-02-04 12:02:00,
2013-02-04 04:12:00,40.0,33.0,30.04,ENE,70,0.0,0.0,75,0.00,,,0.01,,2013-02-04 12:12:00,
2013-02-04 04:21:00,40.0,33.0,30.03,ENE,70,0.0,0.0,76,0.00,,,0.01,,2013-02-04 12:21:00,
2013-02-04 04:32:00,39.0,32.0,30.04,ENE,70,0.0,0.0,75,0.00,,,0.01,,2013-02-04 12:32:00,
2013-02-04 04:41:00,39.0,32.0,30.04,ENE,70,0.0,0.0,75,0.00,,,0.01,,2013-02-04 12:41:00,
2013-02-04 04:52:00,39.0,33.0,30.04,ENE,70,0.0,0.0,80,0.00,,,0.01,,2013-02-04 12:52:00,
2013-02-04 05:01:00,38.0,33.0,30.04,ENE,70,0.0,0.0,83,0.00,,,0.01,,2013-02-04 13:01:00,
2013-02-04 05:11:00,37.0,33.0,30.04,ENE,70,0.0,0.0,84,0.00,,,0.01,,2013-02-04 13:11:00,
2013-02-04 05:21:00,37.0,33.0,30.04,ENE,70,0.0,0.0,84,0.00,,,0.01,,2013-02-04 13:21:00,
2013-02-04 05:32:00,38.0,32.0,30.04,ENE,70,0.0,0.0,80,0.00,,,0.01,,2013-02-04 13:32:00,
2013-02-04 05:41:00,38.0,32.0,30.04,ENE,70,0.0,0.0,80,0.00,,,0.01,,2013-02-04 13:41:00,
2013-02-04 05:52:00,38.0,32.0,30.04,ENE,70,0.0,0.0,79,0.00,,,0.01,,2013-02-04 13:52:00,
2013-02-04 06:02:00,38.0,33.0,30.04,ENE,70,0.0,0.0,81,0.00,,,0.01,,2013-02-04 14:02:00,
2013-02-04 06:11:00,38.0,33.0,30.04,ENE,70,0.0,0.0,81,0.00,,,0.01,,2013-02-04 14:11:00,
2013-02-04 06:21:00,38.0,32.0,30.04,ENE,70,0.0,0.0,79,0.00,,,0.01,,2013-02-04 14:21:00,
2013-02-04 06:32:00,38.0,32.0,30.04,ENE,70,0.0,0.0,80,0.00,,,0.01,,2013-02-04 14:32:00,
2013-02-04 06:41:00,38.0,32.0,30.05,ENE,70,0.0,0.0,80,0.00,,,0.01,,2013-02-04 14:41:00,
2013-02-04 06:52:00,38.0,32.0,30.05,ENE,70,0.0,0.0,80,0.00,,,0.01,,2013-02-04 14:52:00,
2013-02-04 07:02:00,38.0,32.0,30.05,ENE,70,0.0,0.0,80,0.00,,,0.01,,2013-02-04 15:02:00,
2013-02-04 07:11:00,38.0,32.0,30.05,ENE,70,0.0,0.0,80,0.00,,,0.01,,2013-02-04 15:11:00,
2013-02-04 07:22:00,38.0,33.0,30.06,ENE,70,0.0,0.0,81,0.00,,,0.01,,2013-02-04 15:22:00,
2013-02-04 07:33:00,38.0,33.0,30.06,ENE,70,0.0,0.0,81,0.00,,,0.01,,2013-02-04 15:33:00,
2013-02-04 07:42:00,38.0,33.0,30.06,ENE,70,0.0,0.0,81,0.00,,,0.01,,2013-02-04 15:42:00,
2013-02-04 07:52:00,39.0,34.0,30.06,ENE,70,0.0,0.0,83,0.00,,,0.01,,2013-02-04 15:52:00,
2013-02-04 08:01:00,42.0,36.0,30.07,ENE,70,0.0,0.0,78,0.00,,,0.01,,2013-02-04 16:01:00,
2013-02-04 08:11:00,42.0,36.0,30.07,ENE,70,0.0,0.0,78,0.00,,,0.01,,2013-02-04 16:11:00,
2013-02-04 08:21:00,45.0,36.0,30.08,ENE,70,0.0,0.0,71,0.00,,,0.01,,2013-02-04 16:21:00,
2013-02-04 08:32:00,48.0,38.0,30.08,ENE,70,0.0,0.0,67,0.00,,,0.01,,2013-02-04 16:32:00,
2013-02-04 08:42:00,48.0,38.0,30.08,ENE,70,0.0,0.0,67,0.00,,,0.01,,2013-02-04 16:42:00,
2013-02-04 08:51:00,50.0,38.0,30.09,North,354,5.0,5.0,62,0.00,,,0.01,,2013-02-04 16:51:00,
2013-02-04 09:01:00,52.0,37.0,30.09,NNE,14,6.0,6.0,56,0.00,,,0.01,,2013-02-04 17:01:00,
2013-02-04 09:11:00,54.0,36.0,30.09,North,11,7.0,8.0,51,0.00,,,0.01,,2013-02-04 17:11:00,
2013-02-04 09:21:00,54.0,36.0,30.09,North,11,7.0,8.0,51,0.00,,,0.01,,2013-02-04 17:21:00,
2013-02-04 09:31:00,55.0,36.0,30.09,NNE,25,4.0,6.0,49,0.00,,,0.01,,2013-02-04 17:31:00,
2013-02-04 09:41:00,56.0,36.0,30.09,NNW,340,0.0,0.0,47,0.00,,,0.01,,2013-02-04 17:41:00,
2013-02-04 09:51:00,56.0,36.0,30.09,NNW,340,0.0,0.0,47,0.00,,,0.01,,2013-02-04 17:51:00,
2013-02-04 10:02:00,57.0,36.0,30.10,NNE,24,2.0,0.0,46,0.00,,,0.01,,2013-02-04 18:02:00,
2013-02-04 10:11:00,57.0,36.0,30.10,NNE,24,2.0,0.0,46,0.00,,,0.01,,2013-02-04 18:11:00,
2013-02-04 10:21:00,58.0,36.0,30.10,North,4,1.0,6.0,44,0.00,,,0.01,,2013-02-04 18:21:00,
2013-02-04 10:31:00,59.0,37.0,30.09,NNE,25,3.0,0.0,43,0.00,,,0.01,,2013-02-04 18:31:00,
2013-02-04 10:41:00,59.0,37.0,30.09,NNE,25,3.0,0.0,43,0.00,,,0.01,,2013-02-04 18:41:00,
2013-02-04 10:52:00,59.0,36.0,30.09,NNW,328,7.0,7.0,42,0.00,,,0.01,,2013-02-04 18:52:00,
2013-02-04 11:01:00,60.0,36.0,30.09,NE,41,6.0,0.0,40,0.00,,,0.01,,2013-02-04 19:01:00,
2013-02-04 11:11:00,60.0,36.0,30.09,NE,41,6.0,0.0,40,0.00,,,0.01,,2013-02-04 19:11:00,
2013-02-04 11:21:00,61.0,36.0,30.08,NNE,23,5.0,10.0,39,0.00,,,0.01,,2013-02-04 19:21:00,
2013-02-04 11:31:00,61.0,36.0,30.08,North,354,5.0,5.0,39,0.00,,,0.01,,2013-02-04 19:31:00,
2013-02-04 11:41:00,61.0,36.0,30.08,North,354,5.0,5.0,39,0.00,,,0.01,,2013-02-04 19:41:00,
2013-02-04 11:52:00,62.0,36.0,30.07,NNE,17,1.0,0.0,38,0.00,,,0.01,,2013-02-04 19:52:00,
2013-02-04 12:01:00,63.0,36.0,30.06,North,352,7.0,10.0,37,0.00,,,0.01,,2013-02-04 20:01:00,
2013-02-04 12:11:00,63.0,36.0,30.06,North,352,7.0,10.0,37,0.00,,,0.01,,2013-02-04 20:11:00,
2013-02-04 12:21:00,63.0,36.0,30.06,North,0,9.0,9.0,36,0.00,,,0.01,,2013-02-04 20:21:00,
2013-02-04 12:31:00,63.0,35.0,30.06,North,354,12.0,12.0,35,0.00,,,0.01,,2013-02-04 20:31:00,
2013-02-04 12:42:00,63.0,35.0,30.06,North,354,12.0,12.0,35,0.00,,,0.01,,2013-02-04 20:42:00,
2013-02-04 12:52:00,63.0,34.0,30.05,North,3,6.0,10.0,34,0.00,,,0.01,,2013-02-04 20:52:00,
2013-02-04 13:01:00,63.0,34.0,30.04,NE,39,5.0,0.0,34,0.00,,,0.01,,2013-02-04 21:01:00,
2013-02-04 13:11:00,63.0,34.0,30.04,NE,39,5.0,0.0,34,0.00,,,0.01,,2013-02-04 21:11:00,
2013-02-04 13:21:00,63.0,33.0,30.03,NNE,14,8.0,10.0,33,0.00,,,0.01,,2013-02-04 21:21:00,
2013-02-04 13:31:00,63.0,32.0,30.03,North,359,7.0,10.0,31,0.00,,,0.01,,2013-02-04 21:31:00,
2013-02-04 13:42:00,63.0,32.0,30.03,North,359,7.0,10.0,31,0.00,,,0.01,,2013-02-04 21:42:00,
2013-02-04 13:52:00,64.0,34.0,30.02,North,356,11.0,11.0,32,0.00,,,0.01,,2013-02-04 21:52:00,
2013-02-04 14:01:00,64.0,33.0,30.02,NNW,347,5.0,0.0,31,0.00,,,0.01,,2013-02-04 22:01:00,
2013-02-04 14:11:00,64.0,33.0,30.02,NNW,347,5.0,0.0,31,0.00,,,0.01,,2013-02-04 22:11:00,
2013-02-04 14:21:00,64.0,31.0,30.02,NNE,27,14.0,14.0,29,0.00,,,0.01,,2013-02-04 22:21:00,
2013-02-04 14:32:00,63.0,31.0,30.01,NNW,330,7.0,10.0,30,0.00,,,0.01,,2013-02-04 22:32:00,
2013-02-04 14:41:00,63.0,31.0,30.01,NNW,330,7.0,10.0,30,0.00,,,0.01,,2013-02-04 22:41:00,
2013-02-04 14:52:00,63.0,29.0,30.01,North,4,8.0,8.0,28,0.00,,,0.01,,2013-02-04 22:52:00,
2013-02-04 15:01:00,63.0,29.0,30.00,NNE,15,0.0,4.0,28,0.00,,,0.01,,2013-02-04 23:01:00,
2013-02-04 15:11:00,63.0,29.0,30.00,NNE,15,0.0,4.0,28,0.00,,,0.01,,2013-02-04 23:11:00,
2013-02-04 15:21:00,63.0,29.0,30.00,NNE,14,2.0,8.0,27,0.00,,,0.01,,2013-02-04 23:21:00,
2013-02-04 15:31:00,63.0,28.0,30.00,North,359,6.0,0.0,26,0.00,,,0.01,,2013-02-04 23:31:00,
2013-02-04 15:41:00,63.0,28.0,30.00,North,359,6.0,0.0,26,0.00,,,0.01,,2013-02-04 23:41:00,
2013-02-04 15:52:00,62.0,27.0,30.00,NNE,17,8.0,8.0,26,0.00,,,0.01,,2013-02-04 23:52:00,
2013-02-04 16:01:00,62.0,28.0,30.00,NNW,339,4.0,6.0,27,0.00,,,0.01,,2013-02-05 00:01:00,
2013-02-04 16:11:00,62.0,28.0,30.00,NNW,339,4.0,6.0,27,0.00,,,0.01,,2013-02-05 00:11:00,
2013-02-04 16:21:00,61.0,26.0,30.00,NNW,346,6.0,9.0,26,0.00,,,0.01,,2013-02-05 00:21:00,
2013-02-04 16:31:00,61.0,27.0,30.00,North,7,6.0,8.0,27,0.00,,,0.01,,2013-02-05 00:31:00,
2013-02-04 16:41:00,61.0,27.0,30.00,North,7,6.0,8.0,27,0.00,,,0.01,,2013-02-05 00:41:00,
2013-02-04 16:52:00,60.0,27.0,30.00,North,7,8.0,8.0,28,0.00,,,0.01,,2013-02-05 00:52:00,
2013-02-04 17:01:00,59.0,26.0,30.00,North,1,9.0,9.0,28,0.00,,,0.01,,2013-02-05 01:01:00,
2013-02-04 17:11:00,58.0,27.0,30.00,NNE,17,1.0,0.0,30,0.00,,,0.01,,2013-02-05 01:11:00,
2013-02-04 17:21:00,58.0,27.0,30.00,NNE,17,1.0,0.0,30,0.00,,,0.01,,2013-02-05 01:21:00,
2013-02-04 17:32:00,56.0,27.0,30.00,NNE,17,0.0,0.0,32,0.00,,,0.01,,2013-02-05 01:32:00,
2013-02-04 17:42:00,56.0,27.0,30.00,NNE,17,0.0,0.0,32,0.00,,,0.01,,2013-02-05 01:42:00,
2013-02-04 17:52:00,55.0,28.0,30.00,NNE,17,0.0,0.0,35,0.00,,,0.01,,2013-02-05 01:52:00,
2013-02-04 18:01:00,53.0,28.0,30.00,NNE,17,0.0,0.0,38,0.00,,,0.01,,2013-02-05 02:01:00,
2013-02-04 18:11:00,53.0,28.0,30.00,NNE,17,0.0,0.0,38,0.00,,,0.01,,2013-02-05 02:11:00,
2013-02-04 18:21:00,52.0,30.0,30.00,NNE,17,0.0,0.0,42,0.00,,,0.01,,2013-02-05 02:21:00,
2013-02-04 18:31:00,50.0,30.0,30.00,NNE,17,0.0,0.0,46,0.00,,,0.01,,2013-02-05 02:31:00,
2013-02-04 18:41:00,50.0,30.0,30.00,NNE,17,0.0,0.0,46,0.00,,,0.01,,2013-02-05 02:41:00,
2013-02-04 18:52:00,49.0,30.0,30.01,NNE,17,0.0,0.0,48,0.00,,,0.01,,2013-02-05 02:52:00,
2013-02-04 19:01:00,48.0,30.0,30.01,NNE,17,0.0,0.0,49,0.00,,,0.01,,2013-02-05 03:01:00,
2013-02-04 19:11:00,48.0,30.0,30.01,NNE,17,0.0,0.0,49,0.00,,,0.01,,2013-02-05 03:11:00,
2013-02-04 19:21:00,47.0,29.0,30.01,NNE,17,0.0,0.0,49,0.00,,,0.01,,2013-02-05 03:21:00,
2013-02-04 19:31:00,47.0,29.0,30.01,NNE,17,0.0,0.0,50,0.00,,,0.01,,2013-02-05 03:31:00,
2013-02-04 19:41:00,47.0,29.0,30.01,NNE,17,0.0,0.0,50,0.00,,,0.01,,2013-02-05 03:41:00,
2013-02-04 19:52:00,46.0,28.0,30.01,NNE,17,0.0,0.0,50,0.00,,,0.01,,2013-02-05 03:52:00,
2013-02-04 20:01:00,46.0,29.0,30.02,NNE,17,0.0,0.0,51,0.00,,,0.01,,2013-02-05 04:01:00,
2013-02-04 20:11:00,46.0,29.0,30.02,NNE,17,0.0,0.0,51,0.00,,,0.01,,2013-02-05 04:11:00,
2013-02-04 20:21:00,45.0,29.0,30.02,NNE,17,0.0,0.0,53,0.00,,,0.01,,2013-02-05 04:21:00,
2013-02-04 20:31:00,45.0,29.0,30.02,NNE,17,0.0,0.0,53,0.00,,,0.01,,2013-02-05 04:31:00,
2013-02-04 20:41:00,45.0,29.0,30.02,NNE,17,0.0,0.0,53,0.00,,,0.01,,2013-02-05 04:41:00,
2013-02-04 20:52:00,44.0,28.0,30.02,NNE,17,0.0,0.0,54,0.00,,,0.01,,2013-02-05 04:52:00,
2013-02-04 21:01:00,44.0,28.0,30.02,NNE,17,0.0,0.0,54,0.00,,,0.01,,2013-02-05 05:01:00,
2013-02-04 21:11:00,44.0,28.0,30.02,NNE,17,0.0,0.0,54,0.00,,,0.01,,2013-02-05 05:11:00,
2013-02-04 21:21:00,44.0,29.0,30.03,NNE,17,0.0,0.0,55,0.00,,,0.01,,2013-02-05 05:21:00,
2013-02-04 21:31:00,43.0,27.0,30.03,NNE,17,0.0,0.0,53,0.00,,,0.01,,2013-02-05 05:31:00,
2013-02-04 21:41:00,43.0,27.0,30.03,NNE,17,0.0,0.0,53,0.00,,,0.01,,2013-02-05 05:41:00,
2013-02-04 21:52:00,44.0,28.0,30.03,NNE,17,0.0,0.0,54,0.00,,,0.01,,2013-02-05 05:52:00,
2013-02-04 22:01:00,43.0,27.0,30.03,NNE,17,0.0,0.0,53,0.00,,,0.01,,2013-02-05 06:01:00,
2013-02-04 22:11:00,43.0,27.0,30.03,NNE,17,0.0,0.0,53,0.00,,,0.01,,2013-02-05 06:11:00,
2013-02-04 22:21:00,43.0,27.0,30.03,NNE,17,0.0,0.0,53,0.00,,,0.01,,2013-02-05 06:21:00,
2013-02-04 22:31:00,42.0,26.0,30.02,NNE,17,0.0,0.0,53,0.00,,,0.01,,2013-02-05 06:31:00,
2013-02-04 22:41:00,42.0,26.0,30.02,NNE,17,0.0,0.0,53,0.00,,,0.01,,2013-02-05 06:41:00,
2013-02-04 22:51:00,43.0,27.0,30.02,NNE,17,0.0,0.0,52,0.00,,,0.01,,2013-02-05 06:51:00,
2013-02-04 23:01:00,42.0,26.0,30.02,NNE,17,0.0,0.0,53,0.00,,,0.01,,2013-02-05 07:01:00,
2013-02-04 23:11:00,42.0,26.0,30.02,NNE,17,0.0,0.0,53,0.00,,,0.01,,2013-02-05 07:11:00,
2013-02-04 23:22:00,42.0,27.0,30.02,WSW,242,8.0,9.0,55,0.00,,,0.01,,2013-02-05 07:22:00,
2013-02-04 23:31:00,42.0,28.0,30.02,WSW,239,7.0,8.0,58,0.00,,,0.01,,2013-02-05 07:31:00,
2013-02-04 23:41:00,42.0,28.0,30.02,WSW,239,7.0,8.0,58,0.00,,,0.01,,2013-02-05 07:41:00,
2013-02-04 23:52:00,42.0,29.0,30.02,WSW,252,9.0,9.0,59,0.00,,,0.01,,2013-02-05 07:52:00,